Miscellaneous Local Product
Issued by NWS North Platte, NE

Home | Current Version | Previous Version | Text Only | Print | Product List | Glossary On
Versions: 1 2 3 4 5 6 7 8 9 10 11 12 13 14 15 16 17 18 19 20 21 22 23 24 25 26 27 28 29 30 31 32 33 34 35 36 37 38 39 40 41 42 43 44 45 46 47 48 49 50
000
AXUS43 KLBF 260110
MISLBF


WESTERN AND NORTH CENTRAL NEBRASKA HOURLY WEATHER ROUNDUP
NATIONAL WEATHER SERVICE NORTH PLATTE NE
700 PM CST THU DEC 25 2014

***STATIONS NOT REPORTING VARIABLES SUCH AS SKY/WEATHER OR
PRESSURE ARE PROVIDED BY THE NEBRASKA DEPARTMENT OF
ROADS...RAWS...AND APRS NETWORKS...AND ARE NOT UNDER
NATIONAL WEATHER SERVICE QUALITY CONTROL***

...OBSERVATIONS IN AND NEAR THE EASTERN PANHANDLE OF NEBRASKA...

CITY           SKY/WX    TMP DP  RH WIND       PRES   REMARKS
PINE RIDGE     LGT SNOW  25  20  81 N12       29.85R WCI  14
CHADRON        LGT SNOW  25  21  85 NE20      29.87R FOG     WCI  11
ALLIANCE       LGT SNOW  24  21  88 N18       29.79R FOG     WCI  10
SIDNEY         LGT SNOW  25  22  88 NE23G31   29.75R FOG     WCI  10
WHITECLAY        N/A     23  20  87 E9          N/A  WCI  13
CRESCENT LAKE    N/A     24  23  94 N16G23      N/A  WCI  11
LISCO            N/A     29  24  81 NW13        N/A  WCI  18
BIG SPRINGS      N/A     29  26  89 N15         N/A  WCI  18
$$

...OBSERVATIONS IN NORTH CENTRAL NEBRASKA...

CITY           SKY/WX    TMP DP  RH WIND       PRES   REMARKS
VALENTINE      CLOUDY    26  23  88 N18G25    29.83R WCI  13
THEDFORD       MIX PCPN  29  28  93 N13G24    29.75R WCI  19
AINSWORTH      LGT SNOW  27  26  96 N18       29.79R WCI  13
O`NEILL        CLOUDY    32  31  96 N17       29.74S WCI  21
ORD            CLOUDY    32  28  85 N16       29.70R WCI  21
BROKEN BOW     CLOUDY    31  27  85 N21G26    29.70R WCI  18
BROWNLEE         N/A     26  24  94 N18         N/A  WCI  12
SPRINGVIEW       N/A     27  25  90 NW8G23      N/A  WCI  19
BREWSTER         N/A     32  30  93 N14         N/A  WCI  22
ROSE             N/A     32  32 100 N13         N/A  WCI  22
SARGENT          N/A     31  29  90 N7G17       N/A  WCI  24
COMSTOCK         N/A     35  33  92 N15         N/A  WCI  25
CHAMBERS         N/A     31  28  89 N6G13       N/A  WCI  25
EWING            N/A     32  30  92 N3          N/A
$$

...OBSERVATIONS IN SOUTHWEST NEBRASKA AND FAR NORTHEAST COLORADO...

CITY           SKY/WX    TMP DP  RH WIND       PRES   REMARKS
WRAY           CLOUDY    31  28  90 N22       29.67R WCI  18
HOLYOKE        CLOUDY    34  30  86 N24G30    29.70R WCI  21
IMPERIAL       CLOUDY    31  25  78 NE21      29.68R WCI  18
OGALLALA       CLOUDY    29  28  93 NE23G29   29.74R WCI  16
NORTH PLATTE   CLOUDY    30  27  88 NE12      29.72R WCI  20
MCCOOK         CLEAR     31  26  82 N17       29.65R WCI  19
LEXINGTON      MOCLDY    32  28  86 N17G25    29.68R WCI  21
PAXTON           N/A     30  28  92 N20         N/A  WCI  17
BRADY            N/A     30  25  83 N5G12       N/A  WCI  25
GOTHENBURG       N/A     29  24  82 N12         N/A  WCI  19
CALLAWAY         N/A     29  27  91 NE14        N/A  WCI  18
$$

...NORTH PLATTE AREA...

CITY           SKY/WX    TMP DP  RH WIND       PRES   REMARKS
AIRPORT        CLOUDY    30  27  88 NE12      29.72R WCI  20
DOWNTOWN         N/A     30  28  90 N7G15       N/A  WCI  23
$$

...SOME WEATHER OBSERVATIONS FROM AROUND THE REGION...

CITY           SKY/WX    TMP DP  RH WIND       PRES   REMARKS
DENVER         LGT SNOW  25  23  92 N21       29.70R FOG     WCI  11
LARAMIE        LGT SNOW  16  13  88 NE20      29.64R VSB 1   WCI  -1
CHEYENNE       FOG       20  17  88 N15       29.71R VSB 1/2 WCI   6
SCOTTSBLUFF    LGT SNOW  25  21  85 N12       29.81R FOG     WCI  14
RAPID CITY     FLURRIES  24  20  84 N17       29.89R WCI  11
PIERRE         CLOUDY    28  25  88 N22       29.90R WCI  14
WINNER         LGT SNOW  27  25  92 N16       29.87R FOG     WCI  15
SIOUX FALLS    FRZ DRZL  32  30  92 NE12      29.78R FOG     WCI  23
OMAHA          MOCLDY    36  31  82 CALM      29.68R
GRAND ISLAND   CLEAR     29  24  82 N7        29.65R WCI  22
KANSAS CITY    CLOUDY    50  30  46 S21G29    29.73R
WICHITA        CLOUDY    51  28  41 S21G28    29.69R
HAYS           MOCLDY    46  25  42 SW9       29.58R
LIBERAL        PTCLDY    43  16  33 S13       29.62R
GOODLAND       CLEAR     31  27  85 N17       29.62R WCI  19
$$



USA.gov is the U.S. government's official web portal to all federal, state and local government web resources and services.